Flag for Norway Weather past 2 weeks in Hommelvik, Norway

Now
54 °F

Scattered clouds.


Feels Like: 54 °F
Forecast: 49 / 64 °F
Wind: 3 mph from Southeast

Location: Trondheim / Vaernes

Current Time: Aug 23, 2014 at 10:35:42 PM

Latest Report: Aug 23, 2014 at 9:00 PM


Visibility: 31 mi

Pressure: 29.64 "Hg

Humidity: 91%

Dew point: 52 °F

Location of HommelvikLocation

Historic Weather in Hommelvik — Graph

°F

Hommelvik temperature yesterday

Maximum temperature yesterday: 60 °F (at 4:00 PM)
Minimum temperature yesterday: 48 °F (at 2:00 AM)
Average temperature yesterday: 53 °F

Past Weeks' High & Low Weather Summary

 TemperatureHumidityPressure
High82 °F (Aug 9, 4:00 PM)98% (Aug 14, 4:00 AM)29.94 "Hg (Aug 14, 4:00 AM)
Low47 °F (Aug 16, 5:00 AM)34% (Aug 10, 1:00 PM)29.15 "Hg (Aug 18, 8:00 PM)
Average59 °F75%29.54 "Hg
* Reported Aug 8 9:00 PM — Aug 23 9:00 PM, Hommelvik, Weather by CustomWeather, © 2014

Note: Actual official high and low records may vary slightly from our data, if they occured in-between our weather recording intervals... More about our weather records

Advertising

Hommelvik weather history for previous 24 hours

 ConditionsComfort  
Time TempWeatherWind HumidityBarometerVisibility
9:00 PM
Aug 23
54 °FScattered clouds.3 mph91%29.64 "Hg31 mi
8:00 PM56 °FLots of rain. Haze.3 mph87%29.64 "Hg10 mi
7:00 PM57 °FScattered clouds.3 mph90%29.63 "Hg28 mi
6:00 PM58 °FScattered clouds.5 mph84%29.63 "Hg28 mi
5:00 PM58 °FRain showers. Passing clouds.2 mph83%29.62 "Hg31 mi
4:00 PM57 °FRain showers. Partly sunny.2 mph82%29.64 "Hg28 mi
3:00 PM60 °FRain showers. Passing clouds.3 mph79%29.62 "Hg16 mi
2:00 PM59 °FPassing clouds.5 mph78%29.62 "Hg28 mi
1:00 PM61 °FPartly sunny.3 mph74%29.63 "Hg25 mi
12:00 PM58 °FPassing clouds.5 mph80%29.63 "Hg19 mi
11:00 AM59 °FSunny.3 mph79%29.65 "Hg19 mi
10:00 AM58 °FScattered clouds.1 mph87%29.65 "Hg19 mi
9:00 AM53 °FPartly sunny.1 mph92%29.65 "Hg28 mi
8:00 AM51 °FScattered clouds.1 mph96%29.65 "Hg22 mi
7:00 AM49 °FOvercast.2 mph98%29.65 "Hg1 mi
6:00 AM48 °FFog.2 mph98%29.65 "Hg14 mi
5:00 AM50 °FOvercast.1 mph96%29.65 "Hg22 mi
4:00 AM50 °FOvercast.2 mph97%29.65 "Hg9 mi
3:00 AM50 °FLight rain. Passing clouds.2 mph96%29.66 "Hg12 mi
2:00 AM50 °FOvercast.2 mph96%29.66 "Hg19 mi
1:00 AM49 °FOvercast.3 mph95%29.67 "Hg22 mi
12:00 AM50 °FPassing clouds.2 mph95%29.68 "Hg31 mi
11:00 PM
Aug 22
50 °FPassing clouds.2 mph94%29.67 "Hg19 mi
10:00 PM52 °FClear.1 mph93%29.68 "Hg31 mi
Weather by CustomWeather, © 2014

See weather overviewHow to use our weather pages